Back to catalog

COSMOS 1275 DEB

AlivePO
NORAD 39965·DEBRIS·🇷🇺 Russia

Launched Jun 4, 1981 from Plesetsk Cosmodrome

Loading…

Next Passes (next 24 hours)

TLE

FreshSource: Space-Track

Epoch: Sep 14, 2026, 03:09 UTC

1 39965U 81053PB  26257.13148473  .00000520  00000-0  44636-3 0  9995
2 39965  82.9692 185.9821 0045464  88.3180 335.4256 13.84528143618928

Track COSMOS 1275 DEB in real time with AllMySat

Download on the App Store